Regional Weather Roundup
Issued by NWS Charleston, SC

Current Version | Previous Version | Graphics & Text | Print | Product List | Glossary On
Versions: 1 2 3 4 5 6 7 8 9 10 11 12 13 14 15 16 17 18 19 20 21 22 23 24 25 26 27 28 29 30 31 32 33 34 35 36 37 38 39 40 41 42 43 44 45 46 47 48 49 50
000 ASUS42 KCHS 300028 RWRCHS REGIONAL WEATHER ROUNDUP NATIONAL WEATHER SERVICE CHARLESTON SC 800 PM EDT FRI APR 29 2016 NOTE: "FAIR" INDICATES FEW OR NO CLOUDS BELOW 12,000 FEET WITH NO SIGNIFICANT WEATHER AND/OR OBSTRUCTIONS TO VISIBILITY. NOT ALL STATIONS ARE QUALITY CONTROLLED. USE DATA WITH CAUTION... ESPECIALLY DEWPOINT OBSERVATIONS. SCZ027-030-031-034>040-042>050-300100- ...SOUTHEAST SOUTH CAROLINA... CITY SKY/WX TMP DP RH WIND PRES REMARKS N CHARLESTON MOCLDY 73 67 81 SE10 29.95R 6HR MIN TEMP: 73; 6HR MAX TEMP: 91; WATERFRONT PRK N/A 72 70 93 SE7 29.93S MOUNT PLEASANT MOCLDY 72 70 94 E3 29.96S FOG JOHNS ISLAND FAIR 72 70 94 E7 29.96R FOG PINOPOLIS N/A 82 66 57 VRB2 29.85R MONCKS CORNER FAIR 72 63 73 S5 29.95R SUMMERVILLE FAIR 77 64 65 CALM 29.96R BEAUFORT MCAS PTCLDY 77 67 71 E7 29.94R 6HR MIN TEMP: 77; 6HR MAX TEMP: 91; BEAUFORT ARPT FAIR 73 64 73 SE5 29.95R HAZE HILTON HEAD IS CLEAR 73 70 88 CALM 29.97R WALTERBORO CLEAR 77 61 57 SE5 29.96R ALLENDALE FAIR 81 59 47 SE12 29.93R ...SOUTHERN MIDLANDS AND PEE DEE... CITY SKY/WX TMP DP RH WIND PRES REMARKS GEORGETOWN FAIR 68 64 88 SE6 29.98R KINGSTREE FAIR 75 66 73 E7 29.94R ORANGEBURG CLEAR 81 60 48 CALM 29.92R 6HR MIN TEMP: 81; 6HR MAX TEMP: 91; BARNWELL FAIR 81 64 57 CALM 29.95R AIKEN FAIR 77 55 47 CALM 29.99R MANNING NOT AVBL COLUMBIA PTCLDY 85 52 32 N3 29.92R 6HR MIN TEMP: 85; 6HR MAX TEMP: 91; SUMTER PTCLDY 81 64 57 SE3 29.91R FLORENCE CLOUDY 79 63 57 S6 29.93S 6HR MIN TEMP: 79; 6HR MAX TEMP: 86; MYRTLE BEACH NOT AVBL N MYRTLE BEACH CLEAR 69 64 84 SE6 29.96R 6HR MIN TEMP: 69; 6HR MAX TEMP: 76; $$ GAZ063-065-086>088-099>101-113>116-118-119-134>141-150-300100- ...SOUTHEAST GEORGIA... CITY SKY/WX TMP DP RH WIND PRES REMARKS SAVANNAH ARPT PTCLDY 80 57 45 SE9 29.94R 6HR MIN TEMP: 80; 6HR MAX TEMP: 93; HUNTER AAF CLEAR 78 64 61 S6 29.92R 6HR MIN TEMP: 78; 6HR MAX TEMP: 91; FORT STEWART CLEAR 79 61 53 SE5 29.92R 6HR MIN TEMP: 79; 6HR MAX TEMP: 91; STATESBORO PTCLDY 82 69 66 SE3 29.94R SYLVANIA CLEAR 78 65 64 SE6 29.95R CLAXTON FAIR 79 67 66 E3 29.94R ...CSRA...CENTRAL AND FAR SOUTHEAST GEORGIA... CITY SKY/WX TMP DP RH WIND PRES REMARKS THOMSON CLOUDY 76 69 79 SW3 30.00R AUGUSTA-BUSH CLOUDY 78 65 63 CALM 29.92R 6HR MIN TEMP: 77; 6HR MAX TEMP: 91; AUGUSTA-DANIEL CLOUDY 86 55 34 NW5 29.95R SWAINSBORO FAIR 75 63 64 CALM 29.95R VIDALIA CLEAR 81 61 50 CALM 29.95R EASTMAN FAIR 75 68 78 CALM 29.97R HAZLEHURST FAIR 80 67 64 CALM 29.93R ALMA CLEAR 78 69 73 CALM 29.92R 6HR MIN TEMP: 78; 6HR MAX TEMP: 91; WAYCROSS CLEAR 80 69 68 CALM 29.93R JESUP FAIR 82 68 61 SE3 29.94R BAXLEY FAIR 79 64 61 CALM 29.93R BRUNSWICK CLEAR 82 70 65 SE5 29.95R SAINT SIMONS CLEAR 76 71 85 SE8 29.94R 6HR MIN TEMP: 76; 6HR MAX TEMP: 84; $$ SCZ027-028-034-036>038-045-046-048>050-GAZ119-141-300100- ...LAKE AND SUPPLEMENTAL COASTAL OBSERVATIONS... STATION/POSITION TIME TEMP WIND PRES WAVE SWELL AIR SEA DIR/SP/G HT/PER HT/PER/DIR (UTC) (F) (DEG/KT/KT) (MB) (FT/S) (FT/S/D) WINYAH BAY 2345 71 130/ 6 1014.0S LAKE MURRAY 2340 81 CALM 1012.9R ACE BASIN NERRS 2300 77 110/ 3 1014.0S FORT PULASKI 0000 73 1014.3R SAPELO ISLAND 0000 77 130/ 3 1014.0R $$ ANZ835-935-AMZ111-154-330-350-352-354-370-450-454-472-300100- ...C-MAN AND BUOY OBSERVATIONS... STATION/POSITION TIME TEMP WIND PRES WAVE SWELL AIR SEA DIR/SP/G HT/PER HT/PER/DIR (UTC) (F) (DEG/KT/KT) (MB) (FT/S) (FT/S/D) BUOY 41004 2350 73 72 100/ 8/ 10 1014.0R 2/10 2/10 BUOY 41008 NOT AVBL FOLLY BEACH CMAN 0000 71 130/ 9/ 10 1014.7R CAPERS NEARSHORE 2308 71 71 130/ 8/ 12 1014.1R FRIPP NEARSHORE 0008 73 74 120/ 8/ 12 1013.6R STATION/POSITION TIME TEMP WIND PRES WAVE SWELL AIR SEA DIR/SP/G HT/PER HT/PER/DIR (UTC) (F) (DEG/KT/KT) (MB) (FT/S) (FT/S/D) 5E ST. MARYS GA 2321 74 N/A 1/11 FRYING PAN BUOY 0000 69 70 70/ 8/ 10 1014.5R BUOY 41025 2350 61 74 20/ 19/ 23 1014.8R 4/ 5 2/ 50/ 9 CAPE LOOKOUT NC 0000 67 350/ 12/ 13 1014.9R BUOY 41002 2350 72 71 250/ 8/ 10 1013.9R 3/ 6 3/250/ 6 BUOY 41010 2320 77 77 220/ 4/ 6 1014.5F ST AUGUSTINE FL 0000 73 74 160/ 8/ 8 1015.0R $$

USA.gov is the U.S. government's official web portal to all federal, state and local government web resources and services.